Location: Jardim da Gl�ria
(19.7505°S, 43.9549°W)
Time: 06:55:02
(UTC+00:00)

Daily predictions for brighter satellites

Satellite Brightness Start Highest point End
(mag) Time Altitude Azimuth Time Altitude Azimuth Time Altitude Azimuth
Cosmos 2315 Rocket 4.2 21:18:55 10° S 21:25:06 53° E 21:31:09 10° NNE
Cosmos 1812 Rocket 3.9 21:21:56 10° S 21:26:26 76° W 21:30:53 10° N
USA 229 DEB 4.0 21:18:45 10° NNW 21:26:27 66° ENE 21:34:00 10° SSE
USA 229 4.0 21:18:51 10° NNW 21:26:32 65° ENE 21:34:05 10° SSE
COSMOS 2487 2.4 21:23:21 10° NNW 21:26:46 89° WSW 21:30:13 10° SSE
CRYOSAT 2 4.5 21:24:16 10° NNE 21:29:02 56° E 21:33:51 10° S
Cosmos 1340 3.5 21:28:33 10° NNE 21:31:51 29° E 21:35:12 10° SSE
Cosmos 1939 Rocket 3.0 21:30:23 10° SSE 21:34:28 56° E 21:38:28 10° N
CZ-2C R/B 4.2 21:31:53 10° SE 21:36:38 27° E 21:41:25 10° NNE
GPS 2-15 Rocket1 3.1 21:33:02 10° WNW 21:37:40 69° N 21:42:07 11° E
Palapa 6 Rocket 4.4 21:30:25 10° W 21:38:08 70° S 21:44:36 10° E
NOSS 3-1 (A) 4.3 21:32:00 10° NNW 21:40:57 68° ENE 21:49:27 10° SSE
EO 1 Delta rocket 4.3 21:36:08 10° NNE 21:41:10 66° ESE 21:47:28 10° S
Feng Yun 1-1 Rocket 4.3 21:35:52 10° SSE 21:41:34 75° ENE 21:47:21 10° N
Helios 1A Rocket 3.4 21:38:41 10° SSE 21:42:34 37° E 21:46:25 10° NNE
Cosmos 2322 Rocket 2.3 21:39:53 10° S 21:45:29 57° ESE 21:51:02 10° NNE
USA 281 3.2 21:41:22 10° SSE 21:47:59 82° ENE 21:54:32 10° NNW
Cosmos 921 Rocket 4.3 21:46:44 10° SSE 21:49:55 21° ESE 21:51:25 17° ENE
USA 267 4.2 21:43:38 10° SSE 21:50:00 53° SW 21:56:19 10° WNW
Cosmos 2297 Rocket 3.7 21:51:49 14° E 21:51:49 14° E 21:53:59 10° ESE
Okean-O 2.9 21:48:31 10° SSE 21:52:49 47° E 21:57:05 10° N
In-Cosmos 22 Rocket 4.2 21:47:54 10° N 21:53:26 63° E 21:59:10 10° SSE
CZ-4 R/B 1.5 21:54:52 10° SSE 21:58:56 54° E 22:02:52 10° N
Intelsat 5-3 Rocket 2.2 21:59:06 10° WSW 22:01:17 40° S 22:02:44 22° ESE
ARGOS 4.3 21:57:49 10° SE 22:01:44 20° E 22:02:03 20° ENE
Abrixas rocket 3.8 22:01:14 10° S 22:03:13 17° SE 22:03:24 17° SE
SL-08 ROCKET BODY 4.4 22:01:24 10° N 22:07:33 75° E 22:13:45 10° S
H-2A R/B 2.6 22:04:07 10° SE 22:08:50 35° E 22:13:38 10° NNE
X-37B 3.9 22:11:03 10° WSW 22:12:21 12° SW 22:13:39 10° SSW
Meteor 1-27 4.1 22:06:52 10° S 22:12:38 75° E 22:18:14 10° N
CZ-2D R/B 4.2 22:11:59 10° S 22:15:45 49° WSW 22:19:29 10° NNW
Timation 2 Rocket 4.3 22:09:48 10° N 22:16:24 50° ENE 22:22:56 10° SSE
CSL-04 Rocket 3.9 22:14:45 10° SSE 22:20:02 45° E 22:25:18 10° N
SL-16 R/B 3.2 22:15:56 10° SSW 22:21:20 45° WNW 22:26:41 10° N
Cosmos 2219 3.7 22:16:15 10° NNE 22:21:22 35° ENE 22:26:29 10° SE
Cosmos 1869 3.1 22:23:50 10° S 22:27:42 61° E 22:27:58 59° ENE
HJ-1C 4.3 22:25:14 10° SSE 22:27:25 36° SE 22:27:25 36° SE
COSMOS 2428 4.3 22:26:01 10° SSE 22:29:11 18° ESE 22:29:11 18° ESE
Cosmos 2333 Rocket 3.3 22:26:29 10° SSE 22:31:08 26° ESE 22:31:08 26° ESE
Cosmos 1892 4.3 22:30:38 10° NNW 22:34:11 35° W 22:37:46 10° SSW
SJ-11-01 4.1 22:30:16 10° SSE 22:34:59 77° E 22:38:20 19° N
Cosmos 1408 3.2 22:32:37 10° NNW 22:36:15 55° W 22:39:56 10° S
Cosmos 2058 3.5 22:32:39 10° NNW 22:36:42 56° W 22:40:49 10° S
CZ-2C R/B 3.6 22:41:50 61° NE 22:42:37 77° ESE 22:47:19 10° S
CZ-2C R/B 4.4 22:38:57 10° NNW 22:43:27 29° W 22:47:56 10° SW
Cosmos 2360 Rocket 2.3 22:40:34 10° SSW 22:46:15 73° WNW 22:48:38 36° N
Palapa B4 Rocket 3.0 22:44:12 10° W 22:48:38 67° NW 22:48:38 67° NW
Nadezhda 1 Rocket 3.8 22:45:18 10° S 22:51:26 78° E 22:53:07 50° NNE
Cosmos 1825 3.0 22:55:15 49° SW 22:55:15 49° SW 22:58:30 10° S
Cosmos 2227 Rocket 3.5 22:57:52 26° SE 22:57:52 26° SE 23:00:22 10° SSE
Cosmos 1346 Rocket 4.3 22:51:10 10° NNW 22:54:50 35° W 22:58:33 10° SSW
YAOGAN 1 4.4 22:52:05 10° SSW 22:55:54 30° WSW 22:59:41 10° NW
GPS 2-18 Rocket1 4.2 22:54:45 10° W 22:57:42 46° WSW 22:57:42 46° WSW
Centaur AC-146 4.2 22:54:07 10° W 23:00:44 21° NW 23:01:27 20° NNW
FUSE 4.4 22:58:44 10° WSW 23:03:58 50° S 23:04:14 50° SSE
Cosmos 1607 3.7 23:04:53 10° SSW 23:10:58 85° WNW 23:11:08 83° NNW
Cosmos 2219 Rocket 2.8 23:07:06 10° S 23:11:15 45° SSE 23:11:15 45° SSE
Cosmos 2221 3.7 23:09:04 10° SSW 23:12:42 42° WSW 23:12:42 42° WSW
ATLAS 3B CENTAUR R/B 4.4 23:17:33 10° WNW 23:23:11 28° NNW 23:23:56 28° N
Cosmos 968 Rocket 4.4 23:24:59 45° SW 23:24:59 45° SW 23:29:03 10° S
Palapa 6 Rocket 4.1 23:20:29 10° WSW 23:26:28 65° W 23:26:28 65° W
Gbstr 26 Del rocket 4.5 23:23:32 10° NW 23:31:42 80° SW 23:34:57 40° SSE
Cosmos 2297 Rocket 3.2 23:33:05 36° WNW 23:34:33 44° WSW 23:39:56 10° S
